Location: Chauzeix
(45.4543°N, 1.8179°E)
Time: 22:38:12
(UTC+00:00)

Daily predictions for brighter satellites

Satellite Brightness Start Highest point End
(mag) Time Altitude Azimuth Time Altitude Azimuth Time Altitude Azimuth
Cosmos 1300 Rocket 3.9 18:14:52 10° SSE 18:19:01 42° E 18:23:13 10° NNE
Sich 1 Rocket 3.6 18:18:48 10° S 18:23:17 76° E 18:27:52 10° NNE
NOSS 2-2 (E) 4.4 18:20:42 10° WSW 18:24:05 44° NW 18:27:57 10° NNE
CENTAUR R/B 3.4 18:17:32 10° NW 18:25:20 56° NE 18:33:57 10° ESE
Cosmos 2298 Rocket 4.1 18:20:09 10° S 18:25:21 57° ESE 18:30:34 10° NNE
Cosmos 1833 Rocket 4.4 18:23:08 10° N 18:26:32 16° NE 18:29:56 10° ENE
Cosmos 1975 4.3 18:22:43 10° SSW 18:26:36 43° WNW 18:30:31 10° N
Iridium 4 Rocket 4.2 18:22:35 10° SSW 18:27:42 65° W 18:33:19 10° N
CSL-04 Debris 4.2 18:24:40 10° SSE 18:29:58 63° ENE 18:35:18 10° N
Helios 1A Rocket 4.0 18:27:47 10° S 18:31:47 50° W 18:35:50 10° NNW
CSL-04 Rocket 3.7 18:26:34 10° SSE 18:31:55 62° ENE 18:37:23 10° N
ATLAS 2AS CENTAUR R/B 3.7 18:26:36 10° S 18:33:19 32° ESE 18:40:03 10° NE
Okean 2 Rocket 3.1 18:29:06 10° S 18:33:31 62° E 18:37:56 10° NNE
NOSS 2-2 (D) 4.3 18:30:33 10° WSW 18:33:56 44° NW 18:37:45 10° NNE
YAOGAN 1 2.6 18:30:11 10° SSE 18:34:30 89° WSW 18:38:52 10° NNW
Cosmos 1025 Rocket 3.1 18:30:30 10° N 18:34:51 58° ENE 18:39:11 10° SSE
ATLAS 3B R/B 3.8 18:31:28 10° NNW 18:37:16 29° NNE 18:42:35 12° E
Abrixas rocket 2.0 18:37:28 10° WNW 18:40:18 62° NNE 18:42:11 18° E
Cosmos 1513 Rocket 4.4 18:34:49 10° S 18:41:02 75° E 18:47:11 10° NNE
CREW DRAGON DEMO-1 DEB 3.2 18:39:22 10° NW 18:42:20 50° NNE 18:44:16 19° E
Cosmos 1536 Rocket 3.7 18:40:15 10° N 18:44:39 55° ENE 18:49:02 10° SSE
Cosmos 1125 Rocket 3.6 18:40:51 10° S 18:45:59 53° ESE 18:51:10 10° NNE
SJ-6B 4.0 18:48:31 18° E 18:49:56 22° ENE 18:52:55 10° NNE
CZ-4 R/B 2.6 18:48:05 10° S 18:52:09 47° W 18:56:11 10° NNW
Cosmos 2150 Rocket 4.1 18:47:29 10° SSW 18:52:53 88° ESE 18:58:23 10° NNE
SJ-11-01 4.2 18:48:26 10° SSE 18:53:09 84° ENE 18:57:52 10° NNW
CZ-2C R/B 3.3 18:48:50 10° S 18:54:12 80° WSW 18:59:53 10° NNW
Cosmos 1464 Rocket 4.0 18:48:15 10° S 18:54:23 90° SE 19:00:37 10° N
USA 238 DEB 3.9 18:47:32 10° NW 18:54:47 84° SW 19:02:19 10° SSE
USA 238 3.9 18:47:38 10° NW 18:54:54 85° SW 19:02:26 10° SSE
Okean-O 4.1 18:51:53 10° SSW 18:56:02 39° W 19:00:13 10° NNW
Cosmos 2285 Rocket 4.1 18:50:35 10° S 18:56:40 54° ESE 19:02:51 10° NNE
Cosmos 1674 2.9 18:53:16 10° N 18:57:00 47° ENE 19:00:17 13° SSE
Cosmos 1092 Rocket 4.3 18:52:05 10° N 18:57:59 45° ENE 19:03:54 10° SSE
FREGAT/IRIS 4.2 19:04:41 17° NE 19:04:41 17° NE 19:05:43 10° NNE
MOS 1 Rocket 2.9 18:59:21 10° NNE 19:03:43 74° E 19:07:59 10° S
TSX-5 4.3 19:04:21 10° S 19:07:53 39° ESE 19:12:17 10° NE
ARGOS 3.1 19:04:26 10° SSE 19:09:48 83° ENE 19:15:13 10° NNW
Cosmos 1048 Rocket 4.4 19:07:08 10° NNW 19:12:25 65° WSW 19:17:43 10° S
Cosmos 1340 Rocket 4.2 19:15:11 21° ENE 19:15:11 21° ENE 19:17:09 10° NE
CZ-2C R/B 2.9 19:08:38 10° NNE 19:14:00 46° E 19:19:23 10° S
Cosmos 1733 3.6 19:13:47 26° SE 19:15:27 40° E 19:19:03 10° NNE
Cosmos 2151 Rocket 4.0 19:11:46 10° SSW 19:16:12 67° W 19:20:42 10° N
HJ-1C 4.5 19:13:40 10° S 19:16:50 44° W 19:20:01 10° NNW
MOS 1 4.4 19:13:05 18° SE 19:17:16 54° ENE 19:22:50 10° N
Lacrosse 5 rocket 3.5 19:15:02 10° NW 19:18:14 19° N 19:20:43 13° NE
Cosmos 2082 Rocket 3.6 19:15:37 10° N 19:19:55 22° NE 19:21:17 20° ENE
Shenzhou-11 Module 3.9 19:20:08 10° SW 19:20:33 13° SW 19:20:33 13° SW
BREEZE-M DEB (TANK) 3.4 19:19:12 10° WNW 19:22:23 57° SSW 19:27:36 21° SE
BREEZE-M R/B 4.0 19:11:00 10° WSW 19:22:43 86° NNW 19:24:25 30° ENE
DMSP B5D2-2 4.3 19:18:44 10° NNE 19:23:51 47° E 19:28:55 10° S
Cosmos 494 Rocket 4.1 19:19:57 10° NNW 19:25:14 77° WSW 19:29:53 13° SSE
Meteor 1-15 Rocket 4.2 19:21:12 10° S 19:26:51 87° W 19:32:39 10° N
Cosmos 1805 3.1 19:23:25 10° S 19:27:19 82° E 19:31:15 10° N
OBJECT-B 2.4 19:28:48 23° NNE 19:28:48 23° NNE 19:30:30 10° N
Milstar 3 Cent rocket 4.1 19:27:17 10° SW 19:31:04 15° S 19:32:39 14° SSE
Ariane Rocket 2.9 19:28:06 20° SSE 19:31:40 79° ENE 19:36:46 10° NNW
SL-08 RB Rocket 3.7 19:27:52 14° SSE 19:31:44 83° WSW 19:36:18 10° NNW
H-2A R/B 3.0 19:28:25 10° S 19:33:12 46° W 19:38:09 10° NNW
USA 234 4.4 19:38:13 23° SSE 19:38:13 23° SSE 19:41:39 10° S
Cosmos 1269 Rocket 3.9 19:31:52 10° NNW 19:37:12 77° ENE 19:39:34 34° SSE
KORONAS-FOTON 4.5 19:34:40 10° NNW 19:38:33 56° W 19:41:31 16° S
Cosmos 1626 2.1 19:38:38 10° N 19:42:02 64° NE 19:42:02 64° NE
MetOp-A 4.0 19:40:20 29° SSE 19:43:12 80° ENE 19:48:35 10° NNW
USA 186 2.4 19:42:34 43° SSW 19:43:17 54° W 19:46:32 10° NNW
Cosmos 1844 Rocket 3.9 19:40:41 10° SW 19:45:58 43° NW 19:51:18 10° NNE
COSMOS 2406 3.2 19:40:43 10° NNW 19:46:23 65° ENE 19:47:55 46° ESE
ISS -2.1 19:44:30 10° WNW 19:47:28 27° N 19:47:46 27° N
Cosmos 2278 Rocket 2.8 19:44:35 10° S 19:51:32 37° ENE 19:55:20 10° NE
Lacrosse 4 Rocket 2.8 19:50:10 10° N 19:52:52 26° NNE 19:52:52 26° NNE
Meteor 1-22 Rocket 4.2 19:48:49 10° S 19:54:43 82° E 20:00:49 10° NNE
Meteor 2-5 Rocket 3.9 19:51:07 10° NNW 19:56:47 71° W 20:00:46 21° S
Exosat Rocket 4.3 19:52:46 10° SW 19:58:00 52° WNW 20:02:54 10° NNE
Meteor 1-24 Rocket 3.7 19:53:31 10° NNW 19:59:09 87° WSW 20:01:37 36° S
Okean 1 Rocket 4.0 19:55:36 10° SSW 19:59:57 50° WNW 20:04:21 10° N
NOSS 3-4 (A) 3.4 19:55:10 10° SW 20:01:04 80° NW 20:07:26 10° NE
NOSS 3-4 (C) 3.4 19:55:16 10° SW 20:01:11 81° NW 20:07:32 10° NE
SL-14 R/B 3.4 19:58:19 10° N 20:01:55 71° NW 20:01:55 71° NW
Resurs 01 Rocket 2.3 20:03:26 41° NNE 20:03:26 41° NNE 20:06:44 10° N
Meteor 2-19 Rocket 4.5 19:57:18 10° N 20:03:18 55° ENE 20:03:47 54° E
Cosmos 1833 Rocket 2.5 20:05:48 10° NNW 20:11:30 75° ENE 20:11:54 71° E
Cosmos 2251 Rocket 4.0 20:09:12 10° NNW 20:13:44 45° NE 20:13:44 45° NE
CENTAUR R/B 3.9 20:08:25 10° NW 20:16:13 48° WSW 20:22:00 21° S
ARIANE 5 R/B 4.2 20:20:05 25° NNE 20:20:05 25° NNE 20:22:05 10° N
SPOT 3 Rocket 3.4 20:20:50 80° SW 20:21:02 82° WSW 20:26:14 10° NNW
Cosmos 1634 Rocket 4.4 20:17:09 10° SSW 20:23:13 60° WNW 20:29:23 10° N
ATLAS 2AS CENTAUR R/B 3.2 20:15:53 10° SW 20:23:50 72° NW 20:31:43 10° NE
SJ-6B 4.5 20:24:09 27° WSW 20:24:28 28° W 20:27:46 10° NW
Resurs 1-3 4.2 20:26:18 56° WNW 20:26:18 56° WNW 20:30:09 10° NNW
ATLAS 3B R/B 2.6 20:21:54 10° NW 20:28:49 90° SW 20:29:50 68° SE
Cosmos 1892 Rocket 4.3 20:25:06 10° NNW 20:28:36 49° NW 20:28:36 49° NW
Cosmos 1655 Rocket 3.9 20:31:47 10° N 20:37:50 78° NE 20:37:50 78° NE
Lacrosse 5 rocket 3.6 20:54:09 10° NW 20:56:20 25° NNW 20:56:20 25° NNW
Cosmos 2098 Rocket 4.2 20:55:54 10° NNW 21:01:45 62° NW 21:01:45 62° NW
Cosmos 2082 Rocket 2.9 20:58:58 10° NNW 21:03:08 50° NW 21:03:08 50° NW
Terra 4.3 21:21:45 16° N 21:21:45 16° N 21:22:44 10° N
Lacrosse 4 Rocket 4.5 21:28:46 10° NW 21:29:10 12° NW 21:29:10 12° NW
Cosmos 2278 Rocket 3.8 21:33:01 29° WNW 21:34:13 31° NW 21:39:14 10° N
Resurs 01 Rocket 4.5 21:41:01 14° WNW 21:41:01 14° WNW 21:42:11 10° NW
